Skip Page Navigation
NASA JPL Caltech
NASA Logo - Jet Propulsion Laboratory + View the NASA Portal
+ Center for Near-Earth Object Studies
JPL Home Earth Solar System Stars & Galaxies Technology
JPL Solar System Dynamics
BODIES ORBITS EPHEMERIDES TOOLS PHYSICAL DATA DISCOVERY FAQ SITE MAP
IMPORTANT: The SSD Announcement email list is now available. Major changes are coming in the near future, including possible hostname and/or URL changes. To be notified of such changes, subscribe to this email list.

Please visit this page for more details.


JPL Small-Body Database Browser
Search: [ help ]  
233303 (2006 BG46)
Classification: Main-belt Asteroid          SPK-ID: 2233303
Ephemeris | Orbit Diagram | Orbital Elements | Mission Design | Physical Parameters | Discovery Circumstances | Close-Approach Data ]

[ show orbit diagram ]
Orbital Elements at Epoch 2458600.5 (2019-Apr-27.0) TDB
Reference: JPL 11 (heliocentric ecliptic J2000)
 Element Value Uncertainty (1-sigma)   Units 
e .1483853448315292 9.2749e-08  
a 2.534882928112129 2.7017e-08 au
q 2.158743450716655 2.2907e-07 au
i 5.994457105975078 1.0724e-05 deg
node 150.7382365680925 6.4622e-05 deg
peri 135.3113834607721 7.289e-05 deg
M 336.5604637924804 4.111e-05 deg
tp 2458696.480233036215
(2019-Jul-31.98023304)
0.00016912 TDB
period 1474.12830984056
4.04
2.3567e-05
6.452e-08
d
yr
n .2442121202047447 3.9043e-09 deg/d
Q 2.911022405507603 3.1026e-08 au
  Orbit Determination Parameters
   # obs. used (total)      131  
   data-arc span      8757 days (23.98 yr)  
   first obs. used      1994-03-06  
   last obs. used      2018-02-25  
   planetary ephem.      DE431  
   SB-pert. ephem.      SB431-N16  
   condition code      0  
   norm. resid. RMS      .81169  
   source      ORB  
   producer      Otto Matic  
   solution date      2018-Mar-06 01:32:11  

Additional Information
 Earth MOID = 1.14672 au 
 Jupiter MOID = 2.2614 au 
 T_jup = 3.426 
[ show covariance matrix ]

Ephemeris | Orbit Diagram | Orbital Elements | Mission Design | Physical Parameters | Discovery Circumstances | Close-Approach Data ]

Physical Parameter Table
Parameter Symbol Value Units Sigma Reference Notes
absolute magnitude H 16.7   n/a MPO437096  

233303 (2006 BG46)          Discovered 2006-Jan-23 by Mt. Lemmon Survey at Mount Lemmon
Reference: 20100228/Numbers.arcLast Updated: 2010-03-03

[ show close-approach data ]
Alternate Designations
 2006 BG46 = 1998 FM7 
Ephemeris | Orbit Diagram | Orbital Elements | Mission Design | Physical Parameters | Discovery Circumstances | Close-Approach Data ]
ABOUT SSD CREDITS/AWARDS PRIVACY/COPYRIGHT GLOSSARY LINKS
FirstGov 2019-Dec-14 05:15 UT
(server date/time)  
NASA Home Page
Site Manager:   Ryan S. Park
Webmaster  Alan B. Chamberlin